Content
SEND FEEDBACK

Daily
Averages
Monthly
Summary
United States of America

DE SMET, IDAHO


Home > North America > United States > Idaho
Elevation: 786 meters     Latitude: 47 09N     Longitude: 116 55W

WEATHER
 
SELECT A DAY
Number of Records: 188,050;   Date Range: 1/1/95 - 7/7/14
 
SHARE

PRINT THIS DATA

[ ← Previous Day ]
WEATHER ALMANAC - 13 FEBRUARY, 2013
[ Next Day → ]
[ °F ]   °C
Weather ElementAverageHighLow
Temperature5.1 °C7.2 °C (11:53 am)1.1 °C (10:53 pm)
Dewpoint0.8 °C2.2 °C (10:53 am)-2.2 °C (10:53 pm)
Humidity74.4 %83 % (7:53 am)66 % (1:23 pm)
Barometer1025.4 hPa1029.1 hPa (11:53 pm)1022.4 hPa (2:22 am)
Wind Speed21.4 km/h44.4 km/h (2:53 am)
Wind Gust59.2 km/h (2:53 am)
Weather ElementAverage
Visibility16.1 km
Wind DirectionWSW (242.6 °)

Weather ElementTotal
Precipitation---
Heating Degree Days14.2 (Base 18.3)
Averaged from 27 records on 13 February, 2013
WEATHER CONDITIONS BREAKOUT
WIND DIRECTION BREAKOUT
WEATHER BY HOUR - 13 FEBRUARY, 2013
[ °F ]   °C
Local TimeTemperatureDewpointHumidityBarometerVisibilityWind DirectionWind SpeedGust SpeedPrecipitationEventsConditions
1:53 AM5.6 °C1.1 °C73 %1023.4 hPa16.1 kmWSW (250°)25.9 km/h42.6 km/hScattered Clouds
2:22 AM6 °C1 °C70 %1022.4 hPa16.1 kmWSW (250°)27.8 km/h50.1 km/hMostly Cloudy
2:53 AM5.6 °C1.1 °C73 %1023.4 hPa16.1 kmWSW (250°)44.4 km/h59.2 km/hMostly Cloudy
3:53 AM5 °C1.7 °C79 %1022.7 hPa16.1 kmWSW (240°)29.6 km/h55.5 km/hOvercast
4:53 AM5 °C1.1 °C76 %1023.7 hPa16.1 kmWSW (250°)27.8 km/h40.7 km/hOvercast
5:53 AM5 °C1.1 °C76 %1024 hPa16.1 kmWSW (250°)29.6 km/h44.4 km/hOvercast
6:53 AM5 °C1.1 °C76 %1024.4 hPa16.1 kmWSW (250°)20.4 km/h38.9 km/hOvercast
7:53 AM4.4 °C1.7 °C83 %1024.7 hPa16.1 kmWest (260°)25.9 km/h42.6 km/hOvercast
8:53 AM5 °C1.7 °C79 %1025.1 hPa16.1 kmWSW (250°)25.9 km/hOvercast
9:46 AM6 °C2 °C76 %1023.7 hPa16.1 kmWSW (250°)24.1 km/h35.2 km/hScattered Clouds
9:53 AM5 °C1.7 °C79 %1025.4 hPa16.1 kmWSW (250°)20.4 km/h33.3 km/hMostly Cloudy
10:53 AM6.1 °C2.2 °C76 %1025.7 hPa16.1 kmWSW (250°)24.1 km/hScattered Clouds
11:53 AM7.2 °C1.7 °C68 %1025.7 hPa16.1 kmWSW (250°)25.9 km/h42.6 km/hPartly Cloudy
12:53 PM6.7 °C1.1 °C68 %1025.1 hPa16.1 kmWSW (240°)24.1 km/h40.7 km/hScattered Clouds
1:13 PM7 °C2 °C71 %1023.7 hPa16.1 kmWSW (250°)22.2 km/h33.3 km/hMostly Cloudy
1:23 PM7 °C1 °C66 %1023.7 hPa16.1 kmWSW (250°)27.8 km/h35.2 km/hScattered Clouds
1:53 PM6.7 °C1.7 °C71 %1025.1 hPa16.1 kmWest (260°)22.2 km/hPartly Cloudy
2:53 PM6.1 °C0.6 °C68 %1025.4 hPa16.1 kmWest (260°)24.1 km/hPartly Cloudy
3:53 PM5.6 °C0.6 °C70 %1026.1 hPa16.1 kmWSW (250°)18.5 km/hMostly Cloudy
4:53 PM5.6 °C0.6 °C70 %1026.1 hPa16.1 kmWest (260°)14.8 km/hOvercast
5:53 PM5 °C0.6 °C73 %1026.1 hPa16.1 kmWSW (250°)14.8 km/hOvercast
6:53 PM4.4 °C0.6 °C77 %1026.4 hPa16.1 kmWest (260°)9.3 km/hClear
7:53 PM3.3 °C0 °C79 %1027.1 hPa16.1 kmWest (260°)9.3 km/hClear
8:53 PM3.3 °C-0.6 °C76 %1027.4 hPa16.1 kmWSW (250°)9.3 km/hClear
9:53 PM2.2 °C-1.1 °C79 %1028.1 hPa16.1 kmWSW (250°)9.3 km/hClear
10:53 PM1.1 °C-2.2 °C79 %1028.8 hPa16.1 kmVariable5.6 km/hClear
11:53 PM1.7 °C-1.7 °C78 %1029.1 hPa16.1 kmWest (260°)14.8 km/hClear
Hourly data recorded from KPUW, located 0 kilometers away from De Smet, Idaho







STORIES FROM OUR PARTNERS